Location: Newark
(30.4994°N, 96.8283°W)
Time: 07:27:21
(UTC+00:00)

Envisat - Pass Details

Date: 22 November 2019
Orbit: 764 x 766 km, 98.1° (Epoch: 15 December)

Event Time Altitude Azimuth Distance (km) Brightness Sun altitude
Rises 01:58:50 0° 217° (SW) 3,218 6.8 -32.3°
Reaches altitude 10° 02:03:10 10° 253° (WSW) 2,298 6.3 -33.2°
Maximum altitude 02:04:27 11° 267° (W) 2,238 6.2 -33.5°
Drops below altitude 10° 02:05:44 10° 282° (WNW) 2,301 6.2 -33.7°
Sets 02:10:07 0° 319° (NW) 3,233 6.7 -34.7°
